TimeEET,TemperatureF,Dew PointF,Humidity,Sea Level PressureIn,VisibilityMPH,Wind Direction,Wind SpeedMPH,Gust SpeedMPH,PrecipitationIn,Events,Conditions,WindDirDegrees,DateUTC
12:00 AM,46,40,72,29.44,6,WSW,8.9,,,,Partly Cloudy,240,2009-03-07 22:00:00
12:00 AM,46.4,46.4,100,29.42,-9999.0,WSW,10.4,-,N/A,,Clear,240,2009-03-07 22:00:00
12:30 AM,46.4,46.4,100,29.44,-9999.0,SW,9.2,-,N/A,,Clear,230,2009-03-07 22:30:00
1:00 AM,45,39,72,29.45,6,WSW,6.7,,,,Scattered Clouds,240,2009-03-07 23:00:00
1:00 AM,46.4,44.6,93,29.44,-9999.0,SW,10.4,-,N/A,,Clear,230,2009-03-07 23:00:00
1:30 AM,44.6,44.6,100,29.44,-9999.0,WSW,10.4,-,N/A,,Clear,240,2009-03-07 23:30:00
2:00 AM,44,38,71,29.47,6,WSW,6.7,,,,Partly Cloudy,250,2009-03-08 00:00:00
2:00 AM,44.6,44.6,100,29.44,-9999.0,SSW,10.4,-,N/A,,Clear,210,2009-03-08 00:00:00
2:30 AM,42.8,42.8,100,29.44,-9999.0,SW,12.7,-,N/A,,Clear,230,2009-03-08 00:30:00
3:00 AM,42,37,75,29.47,6,WSW,8.9,,,,,240,2009-03-08 01:00:00
3:00 AM,41.0,41.0,100,29.44,-9999.0,SW,11.5,-,N/A,,Clear,220,2009-03-08 01:00:00
3:30 AM,41.0,41.0,100,29.44,-9999.0,SW,11.5,-,N/A,,Clear,220,2009-03-08 01:30:00
4:00 AM,40,36,81,29.46,6,WSW,11.2,,,,,240,2009-03-08 02:00:00
4:00 AM,41.0,41.0,100,29.44,-9999.0,SW,11.5,-,N/A,,Clear,220,2009-03-08 02:00:00
4:30 AM,41.0,41.0,100,29.44,-9999.0,SSW,10.4,-,N/A,,Clear,210,2009-03-08 02:30:00
5:00 AM,39,36,87,29.46,6,SW,8.9,,,,,230,2009-03-08 03:00:00
5:00 AM,41.0,39.2,93,29.44,-9999.0,SW,10.4,-,N/A,,Clear,220,2009-03-08 03:00:00
5:30 AM,41.0,39.2,93,29.44,-9999.0,SSW,10.4,-,N/A,,Clear,210,2009-03-08 03:30:00
6:00 AM,39,36,86,29.46,6,SW,8.9,,,,Scattered Clouds,220,2009-03-08 04:00:00
6:00 AM,39.2,39.2,100,29.44,-9999.0,SSW,9.2,-,N/A,,Clear,210,2009-03-08 04:00:00
6:30 AM,39.2,39.2,100,29.44,-9999.0,SW,9.2,-,N/A,,Clear,220,2009-03-08 04:30:00
7:00 AM,38,36,90,29.46,6,SW,6.7,,,,Clear,230,2009-03-08 05:00:00
7:30 AM,41.0,41.0,100,29.47,6.2,SSW,10.4,-,N/A,,Scattered Clouds,210,2009-03-08 05:30:00
8:00 AM,40,37,85,29.48,6,SW,8.9,,,,Overcast,230,2009-03-08 06:00:00
8:00 AM,42.8,41.0,93,29.47,6.2,SW,12.7,-,N/A,,Mostly Cloudy,220,2009-03-08 06:00:00
8:30 AM,42.8,41.0,93,29.47,6.2,SSW,10.4,-,N/A,,Mostly Cloudy,210,2009-03-08 06:30:00
9:00 AM,41,37,81,29.49,6,SW,8.9,,,,Overcast,220,2009-03-08 07:00:00
9:00 AM,42.8,42.8,100,29.47,6.2,SSW,10.4,-,N/A,,Mostly Cloudy,210,2009-03-08 07:00:00
9:30 AM,44.6,42.8,93,29.47,6.2,SW,12.7,-,N/A,,Mostly Cloudy,220,2009-03-08 07:30:00
10:00 AM,44,38,73,29.50,6,SW,11.2,,,,Overcast,230,2009-03-08 08:00:00
10:00 AM,44.6,44.6,100,29.50,6.2,SW,15.0,-,N/A,,Mostly Cloudy,220,2009-03-08 08:00:00
10:30 AM,46.4,46.4,100,29.50,6.2,SW,15.0,-,N/A,,Mostly Cloudy,220,2009-03-08 08:30:00
11:00 AM,46,38,65,29.52,6,SW,8.9,,,,Overcast,230,2009-03-08 09:00:00
11:00 AM,48.2,44.6,87,29.50,6.2,SW,12.7,-,N/A,,Mostly Cloudy,230,2009-03-08 09:00:00
11:30 AM,48.2,42.8,82,29.50,6.2,WSW,15.0,-,N/A,,Mostly Cloudy,240,2009-03-08 09:30:00
12:00 PM,49,36,50,29.53,6,WSW,8.9,,,,Mostly Cloudy,240,2009-03-08 10:00:00
12:00 PM,50.0,41.0,71,29.50,6.2,WSW,16.1,-,N/A,,Mostly Cloudy,240,2009-03-08 10:00:00
12:30 PM,50.0,39.2,66,29.50,6.2,WSW,16.1,-,N/A,,Mostly Cloudy,240,2009-03-08 10:30:00
1:00 PM,49,30,36,,6,WSW,11.2,,,,Overcast,250,2009-03-08 11:00:00
1:00 PM,50.0,42.8,76,29.50,6.2,West,15.0,-,N/A,,Scattered Clouds,260,2009-03-08 11:00:00
1:30 PM,50.0,41.0,71,29.50,6.2,West,17.3,-,N/A,,Scattered Clouds,260,2009-03-08 11:30:00
2:00 PM,48,32,41,29.54,6,WSW,11.2,,,,Overcast,250,2009-03-08 12:00:00
2:00 PM,50.0,37.4,62,29.50,6.2,West,11.5,-,N/A,,Scattered Clouds,260,2009-03-08 12:00:00
2:30 PM,51.8,37.4,58,29.53,6.2,West,10.4,-,N/A,,Partly Cloudy,280,2009-03-08 12:30:00
3:00 PM,50,29,33,29.55,6,West,11.2,,,,Overcast,270,2009-03-08 13:00:00
3:30 PM,46.4,42.8,87,29.53,6.2,NNE,6.9,-,N/A,,Mostly Cloudy,20,2009-03-08 13:30:00
4:00 PM,45,34,55,29.56,6,North,6.7,,,,Overcast,350,2009-03-08 14:00:00
4:00 PM,44.6,42.8,93,29.53,6.2,NNE,5.8,-,N/A,,Scattered Clouds,20,2009-03-08 14:00:00
4:30 PM,44.6,44.6,100,29.56,-9999.0,North,5.8,-,N/A,,Clear,10,2009-03-08 14:30:00
5:00 PM,44,35,63,29.57,6,North,4.5,,,,Overcast,0,2009-03-08 15:00:00
5:00 PM,44.6,44.6,100,29.56,6.2,NNE,4.6,-,N/A,,Partly Cloudy,30,2009-03-08 15:00:00
5:30 PM,44.6,42.8,93,29.56,6.2,Variable,2.3,-,N/A,,Mostly Cloudy,0,2009-03-08 15:30:00
6:00 PM,44,35,61,29.60,6,North,2.2,,,,Overcast,350,2009-03-08 16:00:00
6:00 PM,44.6,42.8,93,29.59,6.2,Calm,Calm,-,N/A,,Mostly Cloudy,0,2009-03-08 16:00:00
6:30 PM,44.6,42.8,93,29.59,6.2,Calm,Calm,-,N/A,,Mostly Cloudy,0,2009-03-08 16:30:00
7:00 PM,42,35,68,29.62,6,Calm,Calm,,,,Overcast,,2009-03-08 17:00:00
7:00 PM,44.6,42.8,93,29.62,6.2,East,1.2,-,N/A,,Partly Cloudy,90,2009-03-08 17:00:00
7:30 PM,44.6,42.8,93,29.62,-9999.0,Variable,1.2,-,N/A,,Clear,0,2009-03-08 17:30:00
8:00 PM,42,37,75,29.64,6,SSW,2.2,,,,Overcast,210,2009-03-08 18:00:00
8:00 PM,44.6,42.8,93,29.62,-9999.0,SSW,1.2,-,N/A,,Clear,200,2009-03-08 18:00:00
8:30 PM,44.6,42.8,93,29.62,6.2,Calm,Calm,-,N/A,,Partly Cloudy,0,2009-03-08 18:30:00
9:00 PM,41,37,81,29.64,6,Calm,Calm,,,,Mostly Cloudy,,2009-03-08 19:00:00
9:00 PM,44.6,42.8,93,29.62,6.2,Calm,Calm,-,N/A,,Mostly Cloudy,0,2009-03-08 19:00:00
9:30 PM,44.6,42.8,93,29.62,6.2,Calm,Calm,-,N/A,,Mostly Cloudy,0,2009-03-08 19:30:00
10:00 PM,41,38,84,29.65,6,Calm,Calm,,,,Mostly Cloudy,,2009-03-08 20:00:00
10:00 PM,44.6,42.8,93,29.65,6.2,Calm,Calm,-,N/A,,Scattered Clouds,0,2009-03-08 20:00:00
10:30 PM,44.6,42.8,93,29.65,-9999.0,Variable,2.3,-,N/A,,Clear,0,2009-03-08 20:30:00
11:00 PM,41,38,85,29.65,6,SW,2.2,,,,Mostly Cloudy,220,2009-03-08 21:00:00
11:00 PM,44.6,42.8,93,29.62,-9999.0,West,3.5,-,N/A,,Clear,260,2009-03-08 21:00:00
11:30 PM,42.8,42.8,100,29.65,6.2,West,2.3,-,N/A,,Partly Cloudy,270,2009-03-08 21:30:00